Weather in Angling Lake

Canada     53°50′37″N   89°31′51″W
temp.,
°C
wind,
m/s
gust,
m/s
humid.,
%
clouds,
%
prec.,
mm/h
press.,
hPa
HPBL,
m
9 may, sun
sun923:00−1nnw399894 0.2 1023412
02:00−1n3797100 0.4 1024612
05:00−3n389797 0.3 1024435
08:00−2n4893100 0.4 1025453
11:00−2n4789100 0.1 1026686
14:000nnw4784100 0.1 1026911
17:00+2n4778100 0.1 10261076
20:00+1n4891100 0.2 1027645
10 may, mon
mon1023:000n3897100 0.1 1027454
02:00−1n2698100 0.2 1027333
05:00−2n2598100 0.0 1028272
08:00−1n359192 0.2 1029444
11:00+2nnw237298 0.1 10281063
14:00+3nnw126698 0.1 10281080
17:00+6w126093 0.0 10271239
20:00+4sw127628 0.0 102792
11 may, tue
tue1123:00−2s239572 0.0 102742
02:00−2ssw2693100 0.0 102792
05:00−2sw2793100 0.0 1027134
08:00+1sw278496 0.0 1026177
11:00+7wsw35655 0.0 1025406
14:00+11w35535 0.0 1024873
17:00+13w365054 0.0 10231047
20:00+9wsw23745 0.0 102362
12 may, wed
wed1223:00+4sw22835 0.0 102319
02:00+2sw34845 0.0 102347
05:00+2sw378256 0.0 102397
08:00+5w27735 0.0 1024138
11:00+11w35545 0.0 1023306
14:00+16w35415 0.0 1022817
17:00+18w25335 0.0 10211776
20:00+16s114622 0.0 102017
13 may, thu
thu1323:00+10sse22612 0.0 102020
02:00+7sse386995 0.0 1020123
05:00+6sse127330 0.0 101913
08:00+8wsw286695 0.0 1019200
11:00+14w364981 0.0 1018494
14:00+19w353650 0.0 10161536
17:00+18sw2442100 0.2 1015864
20:00+12w51271100 0.6 1015461